,,Stat6,,Stat2,,Stat8,,Stat9,,Stat10,,Wind1,,Wind1,
time,status,PA1M_AVG,status,PR1M_SUM,status,RH1M_AVG,status,SR1M_AVG,status,TA1M_AVG,status,W1dAve1m,status,W1sAve1m,
2005-02-10, 00:00:00,VALID,919.954,VALID,0,VALID,91.9421,VALID,0.0339617,VALID,20.8074,VALID,128,VALID,1.00675,
2005-02-10, 00:01:00,VALID,919.956,VALID,0,VALID,91.5746,VALID,0.0339617,VALID,20.8626,VALID,118,VALID,0.351207,
2005-02-10, 00:02:00,VALID,919.961,VALID,0,VALID,91.5098,VALID,0.0169808,VALID,20.8849,VALID,116,VALID,0.490327,
2005-02-10, 00:03:00,VALID,919.952,VALID,0,VALID,91.5174,VALID,0.0169808,VALID,20.8849,VALID,114,VALID,0.365234,
2005-02-10, 00:04:00,VALID,919.933,VALID,0,VALID,91.6445,VALID,0.0339617,VALID,20.8889,VALID,111,VALID,0.616629,
2005-02-10, 00:05:00,VALID,919.93,VALID,0,VALID,91.9663,VALID,0,VALID,20.8889,VALID,125,VALID,0.937691,
2005-02-10, 00:06:00,VALID,919.905,VALID,0,VALID,92.1087,VALID,-0.0849042,VALID,20.8741,VALID,126,VALID,0.737695,
2005-02-10, 00:07:00,VALID,919.903,VALID,0,VALID,92.3477,VALID,-0.0509425,VALID,20.8509,VALID,118,VALID,0.774479,
2005-02-10, 00:08:00,VALID,919.889,VALID,0,VALID,92.5995,VALID,-0.101885,VALID,20.8351,VALID,112,VALID,0.901867,
2005-02-10, 00:09:00,VALID,919.881,VALID,0,VALID,92.8678,VALID,-0.0849042,VALID,20.7931,VALID,115,VALID,0.816134,
2005-02-10, 00:10:00,VALID,919.876,VALID,0,VALID,92.9568,VALID,-0.0849042,VALID,20.7836,VALID,109,VALID,0.769345,
2005-02-10, 00:11:00,VALID,919.875,VALID,0,VALID,92.8869,VALID,-0.0849042,VALID,20.7705,VALID,115,VALID,0.960428,
2005-02-10, 00:12:00,VALID,919.868,VALID,0,VALID,92.8691,VALID,-0.0849042,VALID,20.7608,VALID,127,VALID,0.833147,
2005-02-10, 00:13:00,VALID,919.862,VALID,0,VALID,92.7152,VALID,-0.0679233,VALID,20.7702,VALID,133,VALID,1.02553,
2005-02-10, 00:14:00,VALID,919.847,VALID,0,VALID,92.611,VALID,-0.0849042,VALID,20.7933,VALID,132,VALID,0.993118,
2005-02-10, 00:15:00,VALID,919.843,VALID,0,VALID,92.5283,VALID,-0.0509425,VALID,20.806,VALID,127,VALID,0.540923,
2005-02-10, 00:16:00,VALID,919.836,VALID,0,VALID,92.4609,VALID,-0.0849042,VALID,20.8055,VALID,119,VALID,0.719638,
2005-02-10, 00:17:00,VALID,919.826,VALID,0,VALID,92.4813,VALID,-0.0679233,VALID,20.803,VALID,99,VALID,0.664971,
2005-02-10, 00:18:00,VALID,919.818,VALID,0,VALID,92.7445,VALID,-0.0849042,VALID,20.764,VALID,104,VALID,0.973323,
2005-02-10, 00:19:00,VALID,919.814,VALID,0,VALID,92.9428,VALID,-0.101885,VALID,20.7414,VALID,118,VALID,1.07231,
2005-02-10, 00:20:00,VALID,919.816,VALID,0,VALID,92.9454,VALID,-0.0849042,VALID,20.722,VALID,109,VALID,0.997713,
2005-02-10, 00:21:00,VALID,919.811,VALID,0,VALID,92.8131,VALID,0.0339617,VALID,20.7177,VALID,100,VALID,1.15747,
2005-02-10, 00:22:00,VALID,919.801,VALID,0,VALID,92.7864,VALID,0.0339617,VALID,20.6949,VALID,96,VALID,1.05711,
2005-02-10, 00:23:00,VALID,919.8,VALID,0,VALID,93.215,VALID,0.0339617,VALID,20.6524,VALID,123,VALID,1.12773,
2005-02-10, 00:24:00,VALID,919.786,VALID,0,VALID,93.4299,VALID,0.0339617,VALID,20.6173,VALID,110,VALID,0.762429,
2005-02-10, 00:25:00,VALID,919.772,VALID,0,VALID,93.5519,VALID,0.0339617,VALID,20.5885,VALID,89,VALID,1.01302,
2005-02-10, 00:26:00,VALID,919.75,VALID,0,VALID,93.6702,VALID,0.0679233,VALID,20.552,VALID,80,VALID,1.02717,
2005-02-10, 00:27:00,VALID,919.742,VALID,0,VALID,94.1865,VALID,0,VALID,20.5239,VALID,100,VALID,1.29392,
2005-02-10, 00:28:00,VALID,919.734,VALID,0,VALID,94.7969,VALID,0.0339617,VALID,20.469,VALID,106,VALID,1.35826,
2005-02-10, 00:29:00,VALID,919.721,VALID,0,VALID,95.1834,VALID,0.0339617,VALID,20.4276,VALID,116,VALID,1.25442,
2005-02-10, 00:30:00,VALID,919.706,VALID,0,VALID,95.4123,VALID,0.0339617,VALID,20.3883,VALID,109,VALID,1.21076,
2005-02-10, 00:31:00,VALID,919.705,VALID,0,VALID,95.5255,VALID,0.0849042,VALID,20.3622,VALID,110,VALID,1.46912,
2005-02-10, 00:32:00,VALID,919.686,VALID,0,VALID,95.5217,VALID,0.0509425,VALID,20.356,VALID,103,VALID,1.21445,
2005-02-10, 00:33:00,VALID,919.641,VALID,0,VALID,95.5852,VALID,0.0169808,VALID,20.3428,VALID,104,VALID,1.25127,
2005-02-10, 00:34:00,VALID,919.606,VALID,0,VALID,95.6069,VALID,0.0339617,VALID,20.3401,VALID,105,VALID,0.952257,
2005-02-10, 00:35:00,VALID,919.57,VALID,0,VALID,95.6234,VALID,0.0339617,VALID,20.3242,VALID,108,VALID,1.31014,
2005-02-10, 00:36:00,VALID,919.546,VALID,0,VALID,95.5941,VALID,0.0169808,VALID,20.3145,VALID,99,VALID,1.09077,
2005-02-10, 00:37:00,VALID,919.526,VALID,0,VALID,95.4085,VALID,0.0509425,VALID,20.3178,VALID,88,VALID,0.789634,
2005-02-10, 00:38:00,VALID,919.517,VALID,0,VALID,95.3576,VALID,0.0509425,VALID,20.2979,VALID,90,VALID,1.127,
2005-02-10, 00:39:00,VALID,919.52,VALID,0,VALID,95.3754,VALID,0,VALID,20.2686,VALID,88,VALID,0.981608,
2005-02-10, 00:40:00,VALID,919.521,VALID,0,VALID,95.4314,VALID,0.0169808,VALID,20.2693,VALID,95,VALID,1.16897,
2005-02-10, 00:41:00,VALID,919.522,VALID,0,VALID,95.3894,VALID,0.0169808,VALID,20.2631,VALID,96,VALID,1.11399,
2005-02-10, 00:42:00,VALID,919.514,VALID,0,VALID,95.3271,VALID,0.0169808,VALID,20.2465,VALID,82,VALID,1.01602,
2005-02-10, 00:43:00,VALID,919.499,VALID,0,VALID,95.1923,VALID,0.0509425,VALID,20.2335,VALID,71,VALID,0.946243,
2005-02-10, 00:44:00,VALID,919.485,VALID,0,VALID,95.1402,VALID,0.0339617,VALID,20.2214,VALID,65,VALID,1.00327,
2005-02-10, 00:45:00,VALID,919.47,VALID,0,VALID,95.1961,VALID,0.0169808,VALID,20.1948,VALID,67,VALID,1.12589,
2005-02-10, 00:46:00,VALID,919.459,VALID,0,VALID,95.1593,VALID,0,VALID,20.1854,VALID,67,VALID,0.990327,
2005-02-10, 00:47:00,VALID,919.43,VALID,0,VALID,95.1898,VALID,0.0509425,VALID,20.1886,VALID,69,VALID,1.05885,
2005-02-10, 00:48:00,VALID,919.424,VALID,0,VALID,95.0105,VALID,0.0509425,VALID,20.1821,VALID,70,VALID,0.973437,
2005-02-10, 00:49:00,VALID,919.416,VALID,0,VALID,94.9444,VALID,0.0169808,VALID,20.1754,VALID,66,VALID,0.91139,
2005-02-10, 00:50:00,VALID,919.426,VALID,0,VALID,94.9939,VALID,0,VALID,20.1305,VALID,58,VALID,0.922066,
2005-02-10, 00:51:00,VALID,919.423,VALID,0,VALID,95.3856,VALID,0,VALID,20.1305,VALID,63,VALID,0.957031,
2005-02-10, 00:52:00,VALID,919.429,VALID,0,VALID,95.2648,VALID,0,VALID,20.1367,VALID,66,VALID,0.925037,
2005-02-10, 00:53:00,VALID,919.427,VALID,0,VALID,95.3894,VALID,0.0339617,VALID,20.1431,VALID,61,VALID,0.981148,
2005-02-10, 00:54:00,VALID,919.418,VALID,0,VALID,95.439,VALID,0.0339617,VALID,20.163,VALID,58,VALID,0.940625,
2005-02-10, 00:55:00,VALID,919.414,VALID,0,VALID,95.2088,VALID,0.0339617,VALID,20.2047,VALID,55,VALID,0.73601,
2005-02-10, 00:56:00,VALID,919.397,VALID,0,VALID,95.041,VALID,0.0679233,VALID,20.2182,VALID,66,VALID,0.762607,
2005-02-10, 00:57:00,VALID,919.372,VALID,0,VALID,95.0639,VALID,0.0169808,VALID,20.2341,VALID,85,VALID,0.870384,
2005-02-10, 00:58:00,VALID,919.377,VALID,0,VALID,94.8515,VALID,0.0339617,VALID,20.2437,VALID,91,VALID,0.752362,
2005-02-10, 00:59:00,VALID,919.354,VALID,0,VALID,94.7015,VALID,0.0339617,VALID,20.2629,VALID,94,VALID,0.797619,
2005-02-10, 01:00:00,VALID,919.336,VALID,0,VALID,94.657,VALID,0,VALID,20.2897,VALID,95,VALID,0.894817,
2005-02-10, 01:01:00,VALID,919.319,VALID,0,VALID,94.484,VALID,0.0339617,VALID,20.2957,VALID,99,VALID,0.896662,
2005-02-10, 01:02:00,VALID,919.303,VALID,0,VALID,94.3861,VALID,0.0339617,VALID,20.3048,VALID,104,VALID,0.898801,
2005-02-10, 01:03:00,VALID,919.297,VALID,0,VALID,94.2462,VALID,0.0169808,VALID,20.3277,VALID,104,VALID,0.699033,
2005-02-10, 01:04:00,VALID,919.281,VALID,0,VALID,94.1966,VALID,0.0169808,VALID,20.3113,VALID,104,VALID,0.510045,
2005-02-10, 01:05:00,VALID,919.278,VALID,0,VALID,94.2208,VALID,0,VALID,20.2887,VALID,103,VALID,0.678779,
2005-02-10, 01:06:00,VALID,919.261,VALID,0,VALID,94.2462,VALID,0.0169808,VALID,20.2499,VALID,102,VALID,0.448742,
2005-02-10, 01:07:00,VALID,919.262,VALID,0,VALID,94.6048,VALID,0.0169808,VALID,20.2244,VALID,102,VALID,0.547763,
2005-02-10, 01:08:00,VALID,919.255,VALID,0,VALID,94.3353,VALID,0.0679233,VALID,20.2087,VALID,95,VALID,0.580915,
2005-02-10, 01:09:00,VALID,919.266,VALID,0,VALID,93.1196,VALID,0.0509425,VALID,20.0892,VALID,92,VALID,0.401526,
2005-02-10, 01:10:00,VALID,919.259,VALID,0,VALID,93.955,VALID,0.0679233,VALID,19.9797,VALID,91,VALID,0.457031,
2005-02-10, 01:11:00,VALID,919.254,VALID,0,VALID,94.7511,VALID,0.0509425,VALID,19.8912,VALID,91,VALID,0.242369,
2005-02-10, 01:12:00,VALID,919.259,VALID,0,VALID,95.6196,VALID,0.0849042,VALID,19.849,VALID,81,VALID,0.547805,
2005-02-10, 01:13:00,VALID,919.249,VALID,0,VALID,96.2757,VALID,0.0679233,VALID,19.8597,VALID,75,VALID,0.448602,
2005-02-10, 01:14:00,VALID,919.252,VALID,0,VALID,96.2884,VALID,0.0339617,VALID,19.8724,VALID,70,VALID,0.355183,
2005-02-10, 01:15:00,VALID,919.249,VALID,0,VALID,96.4029,VALID,0.0169808,VALID,19.9149,VALID,70,VALID,0.31936,
2005-02-10, 01:16:00,VALID,919.235,VALID,0,VALID,96.324,VALID,0.0509425,VALID,19.937,VALID,70,VALID,0.485828,
2005-02-10, 01:17:00,VALID,919.222,VALID,0,VALID,96.1193,VALID,0.0509425,VALID,19.9722,VALID,70,VALID,0.491016,
2005-02-10, 01:18:00,VALID,919.21,VALID,0,VALID,95.926,VALID,0.0849042,VALID,20.0077,VALID,74,VALID,0.561166,
2005-02-10, 01:19:00,VALID,919.206,VALID,0,VALID,95.5662,VALID,0.0339617,VALID,20.0569,VALID,82,VALID,0.713356,
2005-02-10, 01:20:00,VALID,919.179,VALID,0,VALID,95.3792,VALID,0.0849042,VALID,20.0726,VALID,85,VALID,0.681734,
2005-02-10, 01:21:00,VALID,919.174,VALID,0,VALID,95.2673,VALID,0.0509425,VALID,20.0634,VALID,85,VALID,0.633903,
2005-02-10, 01:22:00,VALID,919.157,VALID,0,VALID,95.1987,VALID,0,VALID,20.0408,VALID,88,VALID,0.747456,
2005-02-10, 01:23:00,VALID,919.128,VALID,0,VALID,95.2673,VALID,0,VALID,20.005,VALID,97,VALID,0.923828,
2005-02-10, 01:24:00,VALID,919.102,VALID,0,VALID,95.275,VALID,0.0679233,VALID,19.9948,VALID,109,VALID,1.03125,
2005-02-10, 01:25:00,VALID,919.095,VALID,0,VALID,95.3029,VALID,0.0509425,VALID,20.0241,VALID,107,VALID,0.9706,
2005-02-10, 01:26:00,VALID,919.086,VALID,0,VALID,94.9901,VALID,0.0679233,VALID,20.0952,VALID,105,VALID,1.008,
2005-02-10, 01:27:00,VALID,919.08,VALID,0,VALID,94.7231,VALID,0.0169808,VALID,20.1339,VALID,101,VALID,0.920277,
2005-02-10, 01:28:00,VALID,919.076,VALID,0,VALID,94.4993,VALID,0.101885,VALID,20.1824,VALID,91,VALID,0.928925,
2005-02-10, 01:29:00,VALID,919.075,VALID,0,VALID,94.4039,VALID,0.0339617,VALID,20.2082,VALID,91,VALID,0.781072,
2005-02-10, 01:30:00,VALID,919.066,VALID,0,VALID,94.2844,VALID,0.0339617,VALID,20.2467,VALID,91,VALID,0.854581,
2005-02-10, 01:31:00,VALID,919.061,VALID,0,VALID,94.1191,VALID,0.0169808,VALID,20.2768,VALID,91,VALID,0.778819,
2005-02-10, 01:32:00,VALID,919.058,VALID,0,VALID,93.9627,VALID,0.0679233,VALID,20.2892,VALID,91,VALID,0.697218,
2005-02-10, 01:33:00,VALID,919.06,VALID,0,VALID,93.8889,VALID,0.0679233,VALID,20.2922,VALID,94,VALID,0.700076,
2005-02-10, 01:34:00,VALID,919.062,VALID,0,VALID,93.9601,VALID,0.0849042,VALID,20.2631,VALID,99,VALID,0.751999,
2005-02-10, 01:35:00,VALID,919.051,VALID,0,VALID,94.1432,VALID,0.0679233,VALID,20.2736,VALID,100,VALID,0.816134,
2005-02-10, 01:36:00,VALID,919.041,VALID,0,VALID,94.1636,VALID,-0.0679233,VALID,20.2714,VALID,100,VALID,0.816916,
2005-02-10, 01:37:00,VALID,919.037,VALID,0,VALID,94.0759,VALID,-0.101885,VALID,20.2783,VALID,99,VALID,0.788154,
2005-02-10, 01:38:00,VALID,919.037,VALID,0,VALID,93.8851,VALID,-0.0509425,VALID,20.249,VALID,95,VALID,0.709263,
2005-02-10, 01:39:00,VALID,919.025,VALID,0,VALID,94.2246,VALID,-0.0509425,VALID,20.2073,VALID,88,VALID,0.789418,
2005-02-10, 01:40:00,VALID,919.009,VALID,0,VALID,94.5184,VALID,-0.0509425,VALID,20.1782,VALID,84,VALID,0.752287,
2005-02-10, 01:41:00,VALID,918.997,VALID,0,VALID,94.7651,VALID,-0.0849042,VALID,20.1521,VALID,84,VALID,0.726372,
2005-02-10, 01:42:00,VALID,918.992,VALID,0,VALID,94.8185,VALID,-0.0339617,VALID,20.126,VALID,84,VALID,0.716332,
2005-02-10, 01:43:00,VALID,918.996,VALID,0,VALID,94.8884,VALID,-0.0509425,VALID,20.0935,VALID,82,VALID,0.655078,
2005-02-10, 01:44:00,VALID,918.988,VALID,0,VALID,95.1173,VALID,-0.0679233,VALID,20.0647,VALID,88,VALID,0.785866,
2005-02-10, 01:45:00,VALID,918.99,VALID,0,VALID,95.2025,VALID,-0.0169808,VALID,20.0455,VALID,93,VALID,0.672215,
2005-02-10, 01:46:00,VALID,918.986,VALID,0,VALID,95.3055,VALID,-0.0169808,VALID,20.0063,VALID,105,VALID,0.677689,
2005-02-10, 01:47:00,VALID,918.975,VALID,0,VALID,95.5217,VALID,-0.0849042,VALID,19.9645,VALID,104,VALID,0.708943,
2005-02-10, 01:48:00,VALID,918.963,VALID,0,VALID,95.5674,VALID,-0.0679233,VALID,19.9288,VALID,102,VALID,0.629724,
2005-02-10, 01:49:00,VALID,918.943,VALID,0,VALID,95.6844,VALID,-0.0679233,VALID,19.8781,VALID,94,VALID,0.933398,
2005-02-10, 01:50:00,VALID,918.917,VALID,0,VALID,95.7277,VALID,-0.101885,VALID,19.8197,VALID,86,VALID,0.931463,
2005-02-10, 01:51:00,VALID,918.904,VALID,0,VALID,95.5891,VALID,0,VALID,19.7206,VALID,82,VALID,0.841146,
2005-02-10, 01:52:00,VALID,918.88,VALID,0,VALID,96.2694,VALID,0.0339617,VALID,19.6694,VALID,92,VALID,0.979725,
2005-02-10, 01:53:00,VALID,918.885,VALID,0,VALID,96.6381,VALID,0.0169808,VALID,19.621,VALID,92,VALID,0.902798,
2005-02-10, 01:54:00,VALID,918.879,VALID,0,VALID,96.7971,VALID,0.0339617,VALID,19.5887,VALID,94,VALID,0.917696,
2005-02-10, 01:55:00,VALID,918.881,VALID,0,VALID,97.1887,VALID,0.0509425,VALID,19.55,VALID,104,VALID,1.00254,
2005-02-10, 01:56:00,VALID,918.901,VALID,0,VALID,97.2523,VALID,0.0169808,VALID,19.5378,VALID,107,VALID,0.842297,
2005-02-10, 01:57:00,VALID,918.887,VALID,0,VALID,97.4558,VALID,0.0169808,VALID,19.5214,VALID,101,VALID,1.1147,
2005-02-10, 01:58:00,VALID,918.91,VALID,0,VALID,97.4787,VALID,0,VALID,19.5115,VALID,95,VALID,0.948191,
2005-02-10, 01:59:00,VALID,918.909,VALID,0,VALID,97.5321,VALID,0.0339617,VALID,19.5048,VALID,107,VALID,0.801962,
2005-02-10, 02:00:00,VALID,918.91,VALID,0,VALID,97.588,VALID,0.0849042,VALID,19.502,VALID,100,VALID,0.810826,
2005-02-10, 02:01:00,VALID,918.889,VALID,0,VALID,97.6058,VALID,0.0169808,VALID,19.4792,VALID,94,VALID,0.909108,
2005-02-10, 02:02:00,VALID,918.881,VALID,0,VALID,97.7826,VALID,0.0509425,VALID,19.4628,VALID,99,VALID,1.01905,
2005-02-10, 02:03:00,VALID,918.866,VALID,0,VALID,97.8373,VALID,0.0339617,VALID,19.4404,VALID,104,VALID,0.804332,
2005-02-10, 02:04:00,VALID,918.862,VALID,0,VALID,98.0636,VALID,0,VALID,19.4215,VALID,129,VALID,0.863814,
2005-02-10, 02:05:00,VALID,918.859,VALID,0,VALID,98.1386,VALID,0.0169808,VALID,19.4017,VALID,140,VALID,0.797433,
2005-02-10, 02:06:00,VALID,918.858,VALID,0,VALID,98.3192,VALID,-0.0509425,VALID,19.4064,VALID,128,VALID,0.808949,
2005-02-10, 02:07:00,VALID,918.865,VALID,0,VALID,98.3828,VALID,-0.0849042,VALID,19.4002,VALID,125,VALID,1.00957,
2005-02-10, 02:08:00,VALID,918.856,VALID,0,VALID,98.3001,VALID,-0.0339617,VALID,19.3803,VALID,103,VALID,0.576126,
2005-02-10, 02:09:00,VALID,918.858,VALID,0,VALID,97.9085,VALID,-0.0679233,VALID,19.3448,VALID,107,VALID,0.488281,
2005-02-10, 02:10:00,VALID,918.849,VALID,0,VALID,97.9403,VALID,-0.0679233,VALID,19.3127,VALID,99,VALID,0.67702,
2005-02-10, 02:11:00,VALID,918.844,VALID,0,VALID,98.028,VALID,-0.0849042,VALID,19.2871,VALID,96,VALID,0.639353,
2005-02-10, 02:12:00,VALID,918.846,VALID,0,VALID,98.3167,VALID,-0.0679233,VALID,19.2871,VALID,95,VALID,0.755269,
2005-02-10, 02:13:00,VALID,918.819,VALID,0,VALID,98.4171,VALID,-0.0849042,VALID,19.2934,VALID,97,VALID,0.701389,
2005-02-10, 02:14:00,VALID,918.806,VALID,0,VALID,98.3701,VALID,-0.101885,VALID,19.3199,VALID,100,VALID,0.927202,
2005-02-10, 02:15:00,VALID,918.787,VALID,0,VALID,98.1768,VALID,-0.0509425,VALID,19.309,VALID,92,VALID,0.836301,
2005-02-10, 02:16:00,VALID,918.768,VALID,0,VALID,98.028,VALID,-0.0849042,VALID,19.3097,VALID,103,VALID,0.937847,
2005-02-10, 02:17:00,VALID,918.762,VALID,0,VALID,97.9771,VALID,-0.0849042,VALID,19.3259,VALID,101,VALID,1.09989,
2005-02-10, 02:18:00,VALID,918.762,VALID,0,VALID,97.8856,VALID,-0.0849042,VALID,19.3614,VALID,101,VALID,0.91806,
2005-02-10, 02:19:00,VALID,918.769,VALID,0,VALID,97.7699,VALID,-0.0679233,VALID,19.3937,VALID,97,VALID,0.939986,
2005-02-10, 02:20:00,VALID,918.773,VALID,0,VALID,97.4799,VALID,0,VALID,19.4052,VALID,105,VALID,0.797894,
2005-02-10, 02:21:00,VALID,918.758,VALID,0,VALID,97.3324,VALID,0.0169808,VALID,19.4019,VALID,123,VALID,0.813772,
2005-02-10, 02:22:00,VALID,918.742,VALID,0,VALID,97.2307,VALID,0.0339617,VALID,19.4151,VALID,108,VALID,1.03462,
2005-02-10, 02:23:00,VALID,918.735,VALID,0,VALID,97.0527,VALID,0.0339617,VALID,19.4536,VALID,111,VALID,0.870508,
2005-02-10, 02:24:00,VALID,918.714,VALID,0,VALID,96.7984,VALID,0.0509425,VALID,19.4794,VALID,104,VALID,0.725074,
2005-02-10, 02:25:00,VALID,918.695,VALID,0,VALID,96.5898,VALID,0.0169808,VALID,19.4923,VALID,95,VALID,0.739462,
2005-02-10, 02:26:00,VALID,918.661,VALID,0,VALID,96.4359,VALID,0.0509425,VALID,19.4891,VALID,94,VALID,0.673958,
2005-02-10, 02:27:00,VALID,918.645,VALID,0,VALID,96.3596,VALID,0,VALID,19.4928,VALID,95,VALID,0.838742,
2005-02-10, 02:28:00,VALID,918.621,VALID,0,VALID,96.0239,VALID,0.0169808,VALID,19.4635,VALID,74,VALID,0.683503,
2005-02-10, 02:29:00,VALID,918.61,VALID,0,VALID,95.912,VALID,0.0169808,VALID,19.4047,VALID,82,VALID,1.04818,
2005-02-10, 02:30:00,VALID,918.61,VALID,0,VALID,96.0328,VALID,0.0339617,VALID,19.389,VALID,87,VALID,1.30996,
2005-02-10, 02:31:00,VALID,918.619,VALID,0,VALID,95.9388,VALID,0.0509425,VALID,19.3989,VALID,97,VALID,1.29306,
2005-02-10, 02:32:00,VALID,918.637,VALID,0,VALID,95.7912,VALID,0.0849042,VALID,19.3985,VALID,102,VALID,1.1891,
2005-02-10, 02:33:00,VALID,918.65,VALID,0,VALID,95.9464,VALID,0.0849042,VALID,19.4178,VALID,101,VALID,1.22917,
2005-02-10, 02:34:00,VALID,918.649,VALID,0,VALID,95.907,VALID,0.0679233,VALID,19.4466,VALID,109,VALID,1.27679,
2005-02-10, 02:35:00,VALID,918.647,VALID,0,VALID,95.8269,VALID,0.101885,VALID,19.4961,VALID,117,VALID,1.01674,
2005-02-10, 02:36:00,VALID,918.651,VALID,0,VALID,95.715,VALID,0.0169808,VALID,19.4958,VALID,119,VALID,0.974382,
2005-02-10, 02:37:00,VALID,918.636,VALID,0,VALID,95.7251,VALID,0.0679233,VALID,19.4958,VALID,119,VALID,0.870808,
2005-02-10, 02:38:00,VALID,918.63,VALID,0,VALID,95.776,VALID,0.0509425,VALID,19.4792,VALID,109,VALID,0.848011,
2005-02-10, 02:39:00,VALID,918.624,VALID,0,VALID,95.9108,VALID,0.0509425,VALID,19.4667,VALID,114,VALID,0.890997,
2005-02-10, 02:40:00,VALID,918.628,VALID,0,VALID,96.0087,VALID,0.0509425,VALID,19.4402,VALID,103,VALID,0.888317,
2005-02-10, 02:41:00,VALID,918.61,VALID,0,VALID,96.1219,VALID,0.0679233,VALID,19.4474,VALID,107,VALID,1.04451,
2005-02-10, 02:42:00,VALID,918.598,VALID,0,VALID,95.9451,VALID,0.0849042,VALID,19.4342,VALID,95,VALID,0.779615,
2005-02-10, 02:43:00,VALID,918.593,VALID,0,VALID,96.0697,VALID,0.0679233,VALID,19.4151,VALID,80,VALID,0.867914,
2005-02-10, 02:44:00,VALID,918.582,VALID,0,VALID,95.8777,VALID,0.0679233,VALID,19.3759,VALID,77,VALID,0.632813,
2005-02-10, 02:45:00,VALID,918.58,VALID,0,VALID,96.0735,VALID,0.0679233,VALID,19.3406,VALID,88,VALID,0.754084,
2005-02-10, 02:46:00,VALID,918.568,VALID,0,VALID,96.0863,VALID,0.0509425,VALID,19.3279,VALID,78,VALID,0.578125,
2005-02-10, 02:47:00,VALID,918.556,VALID,0,VALID,96.0316,VALID,0.0509425,VALID,19.3058,VALID,100,VALID,0.574963,
2005-02-10, 02:48:00,VALID,918.562,VALID,0,VALID,96.2083,VALID,0.0339617,VALID,19.2857,VALID,104,VALID,0.781622,
2005-02-10, 02:49:00,VALID,918.568,VALID,0,VALID,96.1778,VALID,0.0339617,VALID,19.2892,VALID,106,VALID,0.57066,
2005-02-10, 02:50:00,VALID,918.574,VALID,0,VALID,96.0341,VALID,0.0679233,VALID,19.3051,VALID,115,VALID,0.594792,
2005-02-10, 02:51:00,VALID,918.564,VALID,0,VALID,95.8141,VALID,0.0339617,VALID,19.3214,VALID,104,VALID,0.474746,
2005-02-10, 02:52:00,VALID,918.56,VALID,0,VALID,95.6463,VALID,0.0509425,VALID,19.3373,VALID,104,VALID,0.299419,
2005-02-10, 02:53:00,VALID,918.572,VALID,0,VALID,95.6107,VALID,0,VALID,19.3376,VALID,104,VALID,0.284979,
2005-02-10, 02:54:00,VALID,918.577,VALID,0,VALID,95.4772,VALID,0.0339617,VALID,19.3214,VALID,104,VALID,0.180069,
2005-02-10, 02:55:00,VALID,918.592,VALID,0,VALID,95.5814,VALID,0.0509425,VALID,19.3023,VALID,104,VALID,0.263626,
2005-02-10, 02:56:00,VALID,918.602,VALID,0,VALID,95.8968,VALID,0.0169808,VALID,19.2959,VALID,104,VALID,0.124619,
2005-02-10, 02:57:00,VALID,918.611,VALID,0,VALID,95.9744,VALID,0.0339617,VALID,19.2728,VALID,127,VALID,0.338224,
2005-02-10, 02:58:00,VALID,918.612,VALID,0,VALID,95.9311,VALID,0.0509425,VALID,19.2599,VALID,111,VALID,0.382813,
2005-02-10, 02:59:00,VALID,918.603,VALID,0,VALID,95.5204,VALID,0,VALID,19.2151,VALID,110,VALID,0.39008,
2005-02-10, 03:00:00,VALID,918.609,VALID,0,VALID,96.043,VALID,0.0509425,VALID,19.1824,VALID,92,VALID,0.826601,
2005-02-10, 03:01:00,VALID,918.587,VALID,0,VALID,95.7556,VALID,0,VALID,19.1826,VALID,77,VALID,0.6625,
2005-02-10, 03:02:00,VALID,918.578,VALID,0,VALID,95.7022,VALID,0,VALID,19.16,VALID,79,VALID,0.779344,
2005-02-10, 03:03:00,VALID,918.563,VALID,0,VALID,95.7226,VALID,0,VALID,19.1536,VALID,80,VALID,0.598437,
2005-02-10, 03:04:00,VALID,918.551,VALID,0,VALID,95.8968,VALID,0,VALID,19.1801,VALID,91,VALID,0.719993,
2005-02-10, 03:05:00,VALID,918.54,VALID,0,VALID,95.9693,VALID,0.0339617,VALID,19.1958,VALID,99,VALID,0.697222,
2005-02-10, 03:06:00,VALID,918.525,VALID,0,VALID,95.8777,VALID,0.0169808,VALID,19.2186,VALID,103,VALID,0.694041,
2005-02-10, 03:07:00,VALID,918.513,VALID,0,VALID,95.8828,VALID,0.0169808,VALID,19.2482,VALID,96,VALID,0.902604,
2005-02-10, 03:08:00,VALID,918.497,VALID,0,VALID,95.6539,VALID,0,VALID,19.2447,VALID,96,VALID,0.904948,
2005-02-10, 03:09:00,VALID,918.478,VALID,0,VALID,95.5458,VALID,0,VALID,19.2571,VALID,85,VALID,0.754616,
2005-02-10, 03:10:00,VALID,918.473,VALID,0,VALID,95.4441,VALID,0,VALID,19.2509,VALID,91,VALID,0.977493,
2005-02-10, 03:11:00,VALID,918.449,VALID,0,VALID,95.3119,VALID,0,VALID,19.2444,VALID,80,VALID,0.824041,
2005-02-10, 03:12:00,VALID,918.442,VALID,0,VALID,95.439,VALID,0,VALID,19.2442,VALID,76,VALID,0.943598,
2005-02-10, 03:13:00,VALID,918.452,VALID,0,VALID,95.4276,VALID,0,VALID,19.2514,VALID,66,VALID,0.942535,
2005-02-10, 03:14:00,VALID,918.449,VALID,0,VALID,95.3653,VALID,0.0339617,VALID,19.2214,VALID,54,VALID,0.96076,
2005-02-10, 03:15:00,VALID,918.443,VALID,0,VALID,95.659,VALID,0,VALID,19.2122,VALID,87,VALID,0.946555,
2005-02-10, 03:16:00,VALID,918.445,VALID,0,VALID,95.9883,VALID,0.0339617,VALID,19.2186,VALID,79,VALID,1.00937,
2005-02-10, 03:17:00,VALID,918.442,VALID,0,VALID,96.0087,VALID,0.0679233,VALID,19.2375,VALID,101,VALID,0.931593,
2005-02-10, 03:18:00,VALID,918.453,VALID,0,VALID,96.2414,VALID,0.0339617,VALID,19.27,VALID,106,VALID,1.22496,
2005-02-10, 03:19:00,VALID,918.464,VALID,0,VALID,95.9883,VALID,0.0169808,VALID,19.3182,VALID,123,VALID,0.751803,
2005-02-10, 03:20:00,VALID,918.474,VALID,0,VALID,95.7887,VALID,0.0169808,VALID,19.3475,VALID,89,VALID,0.810902,
2005-02-10, 03:21:00,VALID,918.477,VALID,0,VALID,96.1104,VALID,0.0339617,VALID,19.396,VALID,124,VALID,1.55035,
2005-02-10, 03:22:00,VALID,918.484,VALID,0,VALID,95.94,VALID,0.0169808,VALID,19.5028,VALID,112,VALID,1.52915,
2005-02-10, 03:23:00,VALID,918.475,VALID,0,VALID,95.5636,VALID,0,VALID,19.5736,VALID,109,VALID,1.32347,
2005-02-10, 03:24:00,VALID,918.472,VALID,0,VALID,95.2635,VALID,0,VALID,19.6513,VALID,105,VALID,1.44495,
2005-02-10, 03:25:00,VALID,918.447,VALID,0,VALID,94.8541,VALID,0.0339617,VALID,19.6995,VALID,70,VALID,0.416788,
2005-02-10, 03:26:00,VALID,918.423,VALID,0,VALID,94.7307,VALID,0.0169808,VALID,19.7154,VALID,112,VALID,1.10728,
2005-02-10, 03:27:00,VALID,918.413,VALID,0,VALID,94.7256,VALID,0.0509425,VALID,19.738,VALID,106,VALID,1.54902,
2005-02-10, 03:28:00,VALID,918.385,VALID,0,VALID,94.6137,VALID,0.0509425,VALID,19.7608,VALID,100,VALID,0.974414,
2005-02-10, 03:29:00,VALID,918.354,VALID,0,VALID,94.47,VALID,0.0509425,VALID,19.7606,VALID,108,VALID,1.14898,
2005-02-10, 03:30:00,VALID,918.339,VALID,0,VALID,94.4408,VALID,0.0679233,VALID,19.7579,VALID,99,VALID,1.05332,
2005-02-10, 03:31:00,VALID,918.308,VALID,0,VALID,94.4154,VALID,0.0339617,VALID,19.7474,VALID,101,VALID,1.37595,
2005-02-10, 03:32:00,VALID,918.293,VALID,0,VALID,94.1534,VALID,0.0509425,VALID,19.7668,VALID,99,VALID,1.06126,